Weather History for Spokane Fairchild, WA

Change the Weather History Date:

Monday, February 4, 2013

  Actual Average Record
Temperature  
Mean Temperature 32 °F -  
Max Temperature 36 °F 35 °F 51 °F (1998)
Min Temperature 28 °F 23 °F 2 °F (2014)
Degree Days  
Heating Degree Days 33    
Moisture  
Dew Point 31 °F    
Average Humidity 99    
Maximum Humidity 100    
Minimum Humidity 87    
Precipitation  
Precipitation 0.00 in - - ()
Snow  
Snow 0.00 in - - ()
Snow Depth 1.00 in    
Sea Level Pressure  
Sea Level Pressure 30.04 in    
Wind  
Wind Speed 6 mph (SSE)    
Max Wind Speed 12 mph    
Max Gust Speed -    
Visibility 3 miles    
Events Fog    
Averages and records for this station are not official NWS values.
T = Trace of Precipitation, MM = Missing Value Source: NWS Daily Summary

Daily Weather History Graph

Daily Weather History Graph

Search for Another Location

Airport:

Trip Planner

Search our weather history database for the weather conditions in past years. The results will help you decide how hot, cold, wet, or windy it might be!

Date:

Astronomy

Feb. 04, 2013 Rise Set
Actual Time 7:12 AM PST 4:57 PM PST
Civil Twilight 6:40 AM PST 5:29 PM PST
Nautical Twilight 6:03 AM PST 6:06 PM PST
Astronomical Twilight 5:27 AM PST 6:42 PM PST
Moon 1:59 AM PST (2/4) 11:18 AM PST (2/4)
Length of Visible Light 10h 49m
Length of Day
9h 44m
Last Quarter, 36% of the Moon is Illuminated
Feb 4
Last Quarter
Feb 9
New
Feb 17
First Quarter
Feb 25
Full
Mar 4
Last Quarter

Hourly Weather History & Observations

Time (PST) Temp. Windchill Dew Point Humidity Pressure Visibility Wind Dir Wind Speed Gust Speed Precip Events Conditions
12:55 AM 32.0 °F 28.7 °F 32.0 °F 100% 30.13 in 0.8 mi South 3.5 mph - N/A   Mist
1:03 AM 32.0 °F 27.5 °F 32.0 °F 100% 30.14 in 0.5 mi South 4.6 mph - N/A Fog Light Freezing Fog
2:55 AM 32.0 °F 23.0 °F 32.0 °F 100% 30.13 in 2.0 mi SSW 11.5 mph - N/A   Overcast
3:55 AM 32.0 °F 23.6 °F 32.0 °F 100% 30.13 in 1.8 mi SSW 10.4 mph - N/A   Overcast
4:17 AM 30.2 °F 23.4 °F 30.2 °F 100% 30.14 in 3.0 mi SW 6.9 mph - N/A   Overcast
4:55 AM 30.2 °F 23.4 °F 30.2 °F 100% 30.13 in 6.0 mi SSW 6.9 mph - N/A   Overcast
5:21 AM 30.2 °F 22.6 °F 30.2 °F 100% 30.12 in 1.8 mi SSW 8.1 mph - N/A   Overcast
5:55 AM 30.2 °F 22.6 °F 30.2 °F 100% 30.13 in 1.5 mi SSW 8.1 mph - N/A   Overcast
6:12 AM 30.2 °F 23.4 °F 30.2 °F 100% 30.13 in 0.8 mi SSW 6.9 mph - N/A   Mist
6:15 AM 30.2 °F 21.9 °F 30.2 °F 100% 30.13 in 0.5 mi SSW 9.2 mph - N/A Fog Light Freezing Fog
6:55 AM 30.2 °F 23.4 °F 30.2 °F 100% 30.12 in 1.8 mi South 6.9 mph - N/A   Overcast
7:08 AM 32.0 °F 24.8 °F 32.0 °F 100% 30.05 in 1.5 mi SSW 8.1 mph - N/A   Overcast
7:13 AM 32.0 °F 26.4 °F 32.0 °F 100% 30.05 in 1.2 mi SSW 5.8 mph - N/A   Overcast
7:18 AM 32.0 °F 28.7 °F 32.0 °F 100% 30.05 in 1.0 mi South 3.5 mph - N/A   Mist
7:23 AM 32.0 °F 28.7 °F 32.0 °F 100% 30.06 in 0.5 mi SSW 3.5 mph - N/A Fog Light Freezing Fog
7:28 AM 32.0 °F 27.5 °F 32.0 °F 100% 30.06 in 0.5 mi South 4.6 mph - N/A Fog Light Freezing Fog
7:33 AM 32.0 °F 27.5 °F 32.0 °F 100% 30.06 in 0.5 mi SSW 4.6 mph - N/A Fog Light Freezing Fog
7:38 AM 32.0 °F 27.5 °F 32.0 °F 100% 30.06 in 1.0 mi SSW 4.6 mph - N/A   Mist
7:43 AM 32.0 °F 28.7 °F 32.0 °F 100% 30.06 in 2.5 mi South 3.5 mph - N/A   Overcast
7:48 AM 32.0 °F 28.7 °F 32.0 °F 100% 30.06 in 2.0 mi South 3.5 mph - N/A   Overcast
7:53 AM 32.0 °F 28.7 °F 32.0 °F 100% 30.07 in 1.2 mi South 3.5 mph - N/A   Overcast
7:58 AM 32.0 °F 27.5 °F 32.0 °F 100% 30.15 in 0.8 mi South 4.6 mph - N/A   Mist
8:03 AM 32.0 °F 27.5 °F 32.0 °F 100% 30.07 in 0.5 mi South 4.6 mph - N/A Fog Light Freezing Fog
8:08 AM 32.0 °F 27.5 °F 32.0 °F 100% 30.07 in 0.5 mi South 4.6 mph - N/A Fog Light Freezing Fog
8:13 AM 32.0 °F 26.4 °F 32.0 °F 100% 30.08 in 0.5 mi SSW 5.8 mph - N/A Fog Light Freezing Fog
8:18 AM 32.0 °F 25.6 °F 32.0 °F 100% 30.08 in 0.8 mi South 6.9 mph - N/A   Mist
8:23 AM 32.0 °F 27.5 °F 32.0 °F 100% 30.08 in 1.8 mi South 4.6 mph - N/A   Overcast
8:28 AM 32.0 °F 27.5 °F 32.0 °F 100% 30.08 in 1.5 mi South 4.6 mph - N/A   Overcast
8:33 AM 32.0 °F 25.6 °F 32.0 °F 100% 30.07 in 1.0 mi South 6.9 mph - N/A   Mist
8:38 AM 32.0 °F 24.8 °F 32.0 °F 100% 30.07 in 1.0 mi South 8.1 mph - N/A   Mist
8:43 AM 32.0 °F 24.8 °F 32.0 °F 100% 30.06 in 1.8 mi South 8.1 mph - N/A   Overcast
8:48 AM 32.0 °F 23.6 °F 32.0 °F 100% 30.05 in 1.8 mi South 10.4 mph - N/A   Overcast
8:53 AM 32.0 °F 26.4 °F 32.0 °F 100% 30.06 in 1.5 mi South 5.8 mph - N/A   Overcast
8:58 AM 32.0 °F 26.4 °F 32.0 °F 100% 30.15 in 1.8 mi South 5.8 mph - N/A   Overcast
9:03 AM 32.0 °F 28.7 °F 32.0 °F 100% 30.08 in 1.5 mi SW 3.5 mph - N/A   Overcast
9:08 AM 32.0 °F 28.7 °F 32.0 °F 100% 30.08 in 1.0 mi SSW 3.5 mph - N/A   Unknown
9:13 AM 32.0 °F 28.7 °F 32.0 °F 100% 30.08 in 0.8 mi SSW 3.5 mph - N/A   Unknown
9:18 AM 32.0 °F 25.6 °F 32.0 °F 100% 30.08 in 0.8 mi SSW 6.9 mph - N/A   Mist
9:23 AM 32.0 °F 24.8 °F 32.0 °F 100% 30.08 in 1.0 mi SSW 8.1 mph - N/A   Mist
9:28 AM 32.0 °F 26.4 °F 32.0 °F 100% 30.08 in 1.5 mi SSW 5.8 mph - N/A   Overcast
9:33 AM 32.0 °F 24.8 °F 32.0 °F 100% 30.08 in 1.8 mi SSW 8.1 mph - N/A   Overcast
9:38 AM 32.0 °F 25.6 °F 32.0 °F 100% 30.08 in 2.5 mi SSW 6.9 mph - N/A   Overcast
9:58 AM 32.0 °F 24.2 °F 32.0 °F 100% 30.16 in 2.5 mi SSW 9.2 mph - N/A   Overcast
10:08 AM 32.0 °F 25.6 °F 32.0 °F 100% 30.08 in 4.0 mi South 6.9 mph - N/A   Overcast
10:58 AM 32.0 °F 26.4 °F 32.0 °F 100% 30.16 in 6.0 mi South 5.8 mph - N/A   Overcast
11:58 AM 33.8 °F 26.4 °F 33.8 °F 100% 30.14 in 10.0 mi South 9.2 mph - N/A   Overcast
12:03 PM 33.8 °F 26.4 °F 33.8 °F 100% 30.06 in 10.0 mi South 9.2 mph - N/A   Overcast
12:18 PM 33.8 °F 26.4 °F 33.8 °F 100% 30.06 in 10.0 mi South 9.2 mph - N/A   Overcast
12:28 PM 33.8 °F 28.6 °F 33.8 °F 100% 30.06 in 10.0 mi South 5.8 mph - N/A   Overcast
12:48 PM 33.8 °F 25.8 °F 33.8 °F 100% 30.05 in 10.0 mi South 10.4 mph - N/A   Overcast
12:58 PM 33.8 °F 26.4 °F 33.8 °F 100% 30.12 in 10.0 mi South 9.2 mph - N/A   Overcast
1:18 PM 35.6 °F 28.6 °F 32.0 °F 87% 30.04 in 10.0 mi SSW 9.2 mph - N/A   Overcast
1:33 PM 35.6 °F 29.2 °F 32.0 °F 87% 30.03 in 10.0 mi SSW 8.1 mph - N/A   Mostly Cloudy
1:38 PM 35.6 °F 29.2 °F 32.0 °F 87% 30.03 in 10.0 mi SSW 8.1 mph - N/A   Mostly Cloudy
1:58 PM 35.4 °F 30.5 °F 33.6 °F 93% 30.10 in 10.0 mi SW 5.8 mph - 0.00 in   Scattered Clouds
2:03 PM 35.6 °F 30.7 °F 32.0 °F 87% 30.03 in 10.0 mi SW 5.8 mph - N/A   Mostly Cloudy
2:43 PM 35.6 °F 31.7 °F 33.8 °F 93% 30.03 in 10.0 mi SSW 4.6 mph - N/A   Scattered Clouds
2:58 PM 36.0 °F 31.1 °F 34.3 °F 94% 30.10 in 10.0 mi SSW 5.8 mph - N/A   Clear
3:58 PM 35.1 °F - 33.4 °F 94% 30.09 in 10.0 mi ENE 2.3 mph - N/A   Clear
4:26 PM 35.6 °F 32.8 °F 33.8 °F 93% 30.02 in 10.0 mi ENE 3.5 mph - N/A   Clear
4:28 PM 35.6 °F 31.7 °F 33.8 °F 93% 30.01 in 10.0 mi ENE 4.6 mph - N/A   Clear
4:38 PM 35.6 °F 31.7 °F 33.8 °F 93% 30.01 in 10.0 mi ENE 4.6 mph - N/A   Clear
4:54 PM 33.8 °F 30.8 °F 32.0 °F 93% 30.00 in 10.0 mi ESE 3.5 mph - N/A   Clear
4:58 PM 34.2 °F 31.2 °F 33.3 °F 97% 30.07 in 10.0 mi ESE 3.5 mph - 0.00 in   Clear
5:05 PM 32.0 °F - 32.0 °F 100% 30.00 in 9.0 mi ESE 2.3 mph - N/A   Clear
5:58 PM 33.1 °F 28.7 °F 32.5 °F 98% 30.06 in 7.0 mi East 4.6 mph - 0.00 in   Partly Cloudy
6:38 PM 32.0 °F - 32.0 °F 100% 29.99 in 2.5 mi Calm Calm - N/A   Clear
6:43 PM 32.0 °F - 32.0 °F 100% 29.99 in 4.0 mi Calm Calm - N/A   Partly Cloudy
6:53 PM 32.0 °F - 32.0 °F 100% 29.99 in 2.0 mi SSE 2.3 mph - N/A   Scattered Clouds
6:58 PM 33.4 °F - 33.1 °F 99% 30.06 in 1.0 mi SE 2.3 mph - N/A   Scattered Clouds
7:03 PM 33.8 °F - 32.0 °F 93% 29.99 in 0.5 mi SE 1.2 mph - N/A Fog Fog
7:08 PM 33.8 °F - 32.0 °F 93% 29.99 in 0.8 mi Calm Calm - N/A   Partly Cloudy
7:13 PM 32.0 °F - 32.0 °F 100% 29.99 in 1.2 mi Calm Calm - N/A   Partly Cloudy
7:18 PM 32.0 °F - 32.0 °F 100% 29.99 in 2.0 mi Calm Calm - N/A   Partly Cloudy
7:23 PM 33.8 °F - 33.8 °F 100% 29.99 in 7.0 mi Calm Calm - N/A   Clear
7:33 PM 33.8 °F - 32.0 °F 93% 29.99 in 1.5 mi Calm Calm - N/A   Partly Cloudy
7:38 PM 32.0 °F - 32.0 °F 100% 29.99 in 1.0 mi NNE 2.3 mph - N/A   Clear
7:43 PM 32.0 °F 27.5 °F 32.0 °F 100% 29.99 in 0.8 mi NNE 4.6 mph - N/A   Clear
7:48 PM 32.0 °F 27.5 °F 32.0 °F 100% 29.99 in 0.2 mi NE 4.6 mph - N/A Fog Fog
7:53 PM 33.8 °F 29.6 °F 33.8 °F 100% 29.99 in 0.2 mi NE 4.6 mph - N/A Fog Fog
7:58 PM 34.3 °F 30.2 °F 34.0 °F 99% 30.06 in 0.2 mi NNE 4.6 mph - N/A Fog Fog
8:01 PM 32.0 °F 27.5 °F 32.0 °F 100% 29.99 in 0.5 mi NNE 4.6 mph - N/A Fog Fog
8:06 PM 28.4 °F 23.3 °F 28.4 °F 100% 29.99 in 0.5 mi North 4.6 mph - N/A Fog Light Freezing Fog
8:16 PM 28.4 °F 23.3 °F 28.4 °F 100% 29.99 in 0.5 mi NNE 4.6 mph - N/A Fog Light Freezing Fog
8:26 PM 28.4 °F 22.2 °F 26.6 °F 93% 29.99 in 0.2 mi NNE 5.8 mph - N/A Fog Light Freezing Fog
8:36 PM 28.4 °F 21.2 °F 28.4 °F 100% 29.98 in 0.2 mi NE 6.9 mph - N/A Fog Light Freezing Fog
8:41 PM 28.4 °F 21.2 °F 28.4 °F 100% 29.98 in 0.5 mi NE 6.9 mph - N/A Fog Light Freezing Fog
8:46 PM 28.4 °F 22.2 °F 28.4 °F 100% 29.99 in 0.5 mi NE 5.8 mph - N/A Fog Light Freezing Fog
8:51 PM 28.4 °F 24.6 °F 28.4 °F 100% 29.98 in 0.8 mi ENE 3.5 mph - N/A   Scattered Clouds
8:58 PM 28.0 °F 22.8 °F 27.9 °F 99% 30.06 in 0.8 mi ENE 4.6 mph - 0.00 in   Scattered Clouds
9:03 PM 28.4 °F - 28.4 °F 100% 29.98 in 0.5 mi NE 2.3 mph - N/A Fog Light Freezing Fog
9:08 PM 28.4 °F 24.6 °F 28.4 °F 100% 29.98 in 0.5 mi NE 3.5 mph - N/A Fog Light Freezing Fog
9:13 PM 28.4 °F 24.6 °F 28.4 °F 100% 29.98 in 0.8 mi ENE 3.5 mph - N/A   Clear
9:18 PM 28.4 °F 23.3 °F 28.4 °F 100% 29.97 in 0.5 mi East 4.6 mph - N/A Fog Light Freezing Fog
9:19 PM 28.4 °F 23.3 °F 28.4 °F 100% 29.97 in 0.5 mi East 4.6 mph - N/A Fog Light Freezing Fog
9:36 PM 28.4 °F 23.3 °F 28.4 °F 100% 29.97 in 0.5 mi ENE 4.6 mph - N/A Fog Light Freezing Fog
9:41 PM 28.4 °F - 28.4 °F 100% 29.97 in 0.2 mi ENE 2.3 mph - N/A Fog Light Freezing Fog
9:46 PM 28.4 °F - 28.4 °F 100% 29.97 in 0.5 mi NE 2.3 mph - N/A Fog Light Freezing Fog
9:56 PM 28.4 °F 22.2 °F 28.4 °F 100% 29.97 in 0.5 mi ENE 5.8 mph - N/A Fog Light Freezing Fog
9:58 PM 29.1 °F 23.0 °F 28.9 °F 99% 30.05 in 0.5 mi ENE 5.8 mph - 0.00 in Fog Light Freezing Fog
10:03 PM 30.2 °F 24.3 °F 30.2 °F 100% 29.97 in 0.8 mi ENE 5.8 mph - N/A   Clear
10:08 PM 30.2 °F 25.4 °F 30.2 °F 100% 29.97 in 0.5 mi ENE 4.6 mph - N/A Fog Light Freezing Fog
10:13 PM 30.2 °F 24.3 °F 30.2 °F 100% 29.96 in 0.5 mi ENE 5.8 mph - N/A Fog Light Freezing Fog
10:33 PM 30.2 °F 25.4 °F 30.2 °F 100% 29.96 in 0.8 mi NE 4.6 mph - N/A   Clear
10:38 PM 30.2 °F 25.4 °F 30.2 °F 100% 29.95 in 1.0 mi NE 4.6 mph - N/A   Clear
10:43 PM 32.0 °F 27.5 °F 30.2 °F 93% 29.95 in 1.0 mi NE 4.6 mph - N/A   Clear
10:48 PM 32.0 °F 27.5 °F 30.2 °F 93% 29.95 in 1.2 mi NE 4.6 mph - N/A   Clear
10:53 PM 32.0 °F 26.4 °F 30.2 °F 93% 29.95 in 1.8 mi ENE 5.8 mph - N/A   Partly Cloudy
10:58 PM 30.4 °F 24.5 °F 30.2 °F 99% 30.02 in 2.5 mi ENE 5.8 mph - N/A   Scattered Clouds
11:03 PM 32.0 °F 26.4 °F 32.0 °F 100% 29.95 in 4.0 mi ENE 5.8 mph - N/A   Mostly Cloudy
11:48 PM 32.0 °F 28.7 °F 32.0 °F 100% 29.95 in 2.5 mi NE 3.5 mph - N/A   Scattered Clouds
11:58 PM 30.7 °F 27.3 °F 30.6 °F 99% 30.02 in 3.0 mi NE 3.5 mph - N/A   Scattered Clouds